Claresholm, Alberta

11:42 PM MDT on April 24, 2017 (GMT -0600)
Claresholm

Weather History for CWDK - November, 2012

Change the Weather History Date:

Wednesday, November 7, 2012

  Actual Average Record
Temperature  
Mean Temperature 39 °F -  
Max Temperature 52 °F - - ()
Min Temperature 26 °F - - ()
Degree Days  
Heating Degree Days 26    
Moisture  
Dew Point 30 °F    
Average Humidity 77    
Maximum Humidity 95    
Minimum Humidity 39    
Precipitation  
Precipitation 0.00 in - - ()
Sea Level Pressure  
Sea Level Pressure 29.86 in    
Wind  
Wind Speed 8 mph ()    
Max Wind Speed 16 mph    
Max Gust Speed 18 mph    
T = Trace of Precipitation, MM = Missing Value Source: Averaged Metar Reports

Daily Weather History Graph

Daily Weather History Graph

Search for Another Location

Airport or City:

Trip Planner

Search our weather history database for the weather conditions in past years. The results will help you decide how hot, cold, wet, or windy it might be!

Date:

Astronomy

Nov. 07, 2012 Rise Set
Actual Time 7:35 AM MST 5:00 PM MST
Civil Twilight 7:00 AM MST 5:35 PM MST
Nautical Twilight 6:21 AM MST 6:13 PM MST
Astronomical Twilight 5:43 AM MST 6:51 PM MST
Moon No Moon Rise 1:47 PM MST (11/7)
Length of Visible Light 10h 34m
Length of Day
9h 25m
Last Quarter, 42% of the Moon is Illuminated
Nov 7
Last Quarter
Nov 13
New
Nov 20
First Quarter
Nov 28
Full
Dec 6
Last Quarter

Hourly Weather History & Observations

Time (MST) Temp. Windchill Dew Point Humidity Pressure Visibility Wind Dir Wind Speed Gust Speed Precip Events Conditions
12:00 AM 30.7 °F 24.1 °F 29.1 °F 94% 29.76 in - North 6.9 mph - N/A   Unknown
1:00 AM 28.6 °F 23.5 °F 26.8 °F 93% 29.76 in - North 4.6 mph - N/A   Unknown
2:00 AM 29.7 °F 26.1 °F 28.4 °F 95% 29.73 in - NNE 3.5 mph - N/A   Unknown
3:00 AM 33.8 °F 28.6 °F 31.8 °F 92% 29.68 in - ESE 5.8 mph - N/A   Unknown
4:00 AM 42.6 °F 37.8 °F 37.9 °F 83% 29.65 in - SSW 8.1 mph - N/A   Unknown
5:00 AM 49 °F - 40 °F 61% 29.66 in - WSW 16.1 mph - -  
5:00 AM 48.6 °F - 39.7 °F 72% 29.66 in - WSW 16.1 mph - N/A   Unknown
6:00 AM 43.0 °F 41.3 °F 33.4 °F 69% 29.68 in - WSW 3.5 mph - N/A   Unknown
7:00 AM 36.1 °F 28.2 °F 31.3 °F 83% 29.70 in - NNE 11.5 mph 18.4 mph N/A   Unknown
8:00 AM 37.4 °F 32.8 °F 31.1 °F 78% 29.71 in - NNE 5.8 mph - N/A   Unknown
10:00 AM 46.8 °F - 36.0 °F 66% 29.72 in - NNW 9.2 mph - N/A   Unknown
11:00 AM 49 °F - 32 °F 39% 29.75 in - WNW 15.0 mph - -  
11:00 AM 48.6 °F - 31.8 °F 52% 29.75 in - WNW 15.0 mph - N/A   Unknown
12:00 PM 34.2 °F 25.7 °F 30.4 °F 86% 29.82 in - North 11.5 mph 17.3 mph N/A   Unknown
1:00 PM 33.4 °F 24.8 °F 28.8 °F 83% 29.86 in - North 11.5 mph 18.4 mph N/A   Unknown
2:00 PM 36.1 °F 27.7 °F 29.1 °F 76% 29.87 in - North 12.7 mph - N/A   Unknown
3:00 PM 35.2 °F 27.1 °F 29.8 °F 81% 29.90 in - NNE 11.5 mph - N/A   Unknown
4:00 PM 34.3 °F 25.5 °F 28.9 °F 81% 29.93 in - North 12.7 mph - N/A   Unknown
5:00 PM 33 °F - 27 °F 70% 29.98 in - North 9.2 mph - -  
5:00 PM 33.3 °F 25.7 °F 26.8 °F 77% 29.98 in - North 9.2 mph - N/A   Unknown
6:00 PM 32.0 °F 22.5 °F 26.1 °F 79% 30.04 in - North 12.7 mph - N/A   Unknown
7:00 PM 31.8 °F 22.3 °F 26.2 °F 80% 30.07 in - NNW 12.7 mph - N/A   Unknown
8:00 PM 31.6 °F 22.6 °F 25.0 °F 76% 30.08 in - NNW 11.5 mph 17.3 mph N/A   Unknown
9:00 PM 31.8 °F 26.2 °F 25.7 °F 78% 30.09 in - NNW 5.8 mph - N/A   Unknown
10:00 PM 29.8 °F 20.9 °F 25.9 °F 85% 30.12 in - North 10.4 mph - N/A   Unknown
11:00 PM 28 °F - 24 °F 77% 30.17 in - North 10.4 mph - -  
11:00 PM 28.2 °F 18.9 °F 23.5 °F 83% 30.17 in - North 10.4 mph - N/A   Unknown